Weather Service Report


904 
ASUS44 KLIX 260611
RWRLA 
LOUISIANA WEATHER ROUNDUP
NATIONAL WEATHER SERVICE NEW ORLEANS LA
100 AM CDT SUN APR 26 2015

NOTE: "FAIR" INDICATES FEW OR NO CLOUDS BELOW 12,000 FEET WITH NO
      SIGNIFICANT WEATHER AND/OR OBSTRUCTIONS TO VISIBILITY.
      SKY/WX - SKY CONDITION AND SIGNIFICANT WEATHER.
      TMP - AIR TEMPERATURE.    DP   - DEWPOINT TEMPERATURE.
      RH  - RELATIVE HUMIDITY.  PRES - PRESSURE.
      HX  - HEAT INDEX.         WCI  - WIND CHILL INDEX.

*  THESE STATIONS ARE NOT NWS OR FAA STATIONS AND ARE NOT UNDER
   NWS QUALITY CONTROL.

LAZ040-048-061>063-065-066-069-260700-
SOUTHEAST LOUISIANA
  
CITY           SKY/WX    TMP DP  RH WIND       PRES   REMARKS
N.O. AUDUBON     N/A     70  69  99 MISG        N/A                   
6HR MIN TEMP:  69; 6HR MAX TEMP:  76;                                

N.O. INTL ARPT PTCLDY    69  65  86 CALM      29.75S                  
6HR MIN TEMP:  69; 6HR MAX TEMP:  75;                                

N.O. LAKEFRONT PTCLDY    73  67  81 CALM      29.76S                  
6HR MIN TEMP:  73; 6HR MAX TEMP:  79;                                

SLIDELL        PTCLDY    65  65 100 CALM      29.75S                  
6HR MIN TEMP:  65; 6HR MAX TEMP:  76;                                

BATON ROUGE    PTCLDY    67  66  97 W3        29.75S                  
6HR MIN TEMP:  67; 6HR MAX TEMP:  75;                                

BOOTHVILLE     MOCLDY    76  73  91 S8        29.76S                  
6HR MIN TEMP:  74; 6HR MAX TEMP:  77; 6HR PCP: TRACE;                

BELLE CHASSE   CLEAR     66  64  93 CALM      29.74F FOG              
6HR MIN TEMP:  65; 6HR MAX TEMP:  74;                                

BOGALUSA*      FOG       63  60  91 CALM      29.77S VSB 1/2          
6HR MIN TEMP:  62; 6HR MAX TEMP:  74;                                

GALLIANO*      CLEAR     75  71  88 S5        29.76S                  
6HR MIN TEMP:  70; 6HR MAX TEMP:  76;                                

NEW ROADS*     FAIR      67  66  98 CALM      29.75S FOG              
6HR MIN TEMP:  66; 6HR MAX TEMP:  76;                                

GONZALES*      FAIR     N/A N/A N/A CALM      29.74S                  
HAMMOND*       PTCLDY    66  63  88 CALM      29.77S                  
HOUMA*         CLEAR     71  70  96 S3        29.75F                  
6HR MIN TEMP:  67; 6HR MAX TEMP:  72;                                

PORT FOURCHON* CLEAR     77  73  88 S8        29.78F                  

$$

LAZ041-044-053-054-260700-
SOUTHWEST LOUISIANA
  
CITY           SKY/WX    TMP DP  RH WIND       PRES   REMARKS
LAKE CHARLES   PTCLDY    67  66  97 NW3       29.75S FOG              
6HR MIN TEMP:  67; 6HR MAX TEMP:  77;                                

LAFAYETTE      PTCLDY    68  67  96 CALM      29.74F FOG              
6HR MIN TEMP:  68; 6HR MAX TEMP:  77;                                

PATTERSON      PTCLDY    70  68  94 S5        29.76F                  
6HR MIN TEMP:  68; 6HR MAX TEMP:  73;                                

SALT POINT       N/A     73  71  93 CALM      29.73F                  
6HR MIN TEMP:  71; 6HR MAX TEMP:  75;                                

NEW IBERIA     FOG       68  66  93 CALM      29.75S VSB 1/2          
6HR MIN TEMP:  67; 6HR MAX TEMP:  77;                                

CHENAULT AIRPK PTCLDY    68  68  99 CALM      29.76S                  
6HR MIN TEMP:  67; 6HR MAX TEMP:  78;                                


$$

LAZ027-028-260700-
CENTRAL LOUISIANA
  
CITY           SKY/WX    TMP DP  RH WIND       PRES   REMARKS
FORT POLK      PTCLDY    68  66  93 S6        29.74S                  
6HR MIN TEMP:  68; 6HR MAX TEMP:  79;                                

ALEXANDRIA INT CLEAR     70  67  90 SW6       29.72S                  
6HR MIN TEMP:  69; 6HR MAX TEMP:  78;                                

ALEXANDRIA     CLEAR     66  65  96 CALM      29.73S                  
6HR MIN TEMP:  66; 6HR MAX TEMP:  77;                                


$$

LAZ001-002-260700-
NORTHWEST LOUISIANA
  
CITY           SKY/WX    TMP DP  RH WIND       PRES   REMARKS
SHREVEPORT     CLEAR     65  56  72 CALM      29.69S                  
6HR MIN TEMP:  63; 6HR MAX TEMP:  84;                                

BARKSDALE AFB  CLEAR     61  57  86 SE5       29.69R                  
6HR MIN TEMP:  59; 6HR MAX TEMP:  86;                                

DTN SHREVEPORT CLEAR     63  56  78 SW3       29.69S                  
6HR MIN TEMP:  63; 6HR MAX TEMP:  84;                                


$$

LAZ014-016-260700-
NORTHEAST LOUISIANA
  
CITY           SKY/WX    TMP DP  RH WIND       PRES   REMARKS
MONROE         FAIR      70  67  90 SW9       29.71R                  
6HR MIN TEMP:  70; 6HR MAX TEMP:  81;                                

TALLULAH       CLEAR     70  66  87 SW6       29.71S                  
6HR MIN TEMP:  69; 6HR MAX TEMP:  78;                                


$$



905 
ASUS44 KLIX 260611
RWRLIX
NEW ORLEANS REGIONAL WEATHER ROUNDUP
NATIONAL WEATHER SERVICE NEW ORLEANS LA
100 AM CDT SUN APR 26 2015

NOTE: "FAIR" INDICATES FEW OR NO CLOUDS BELOW 12,000 FEET WITH NO
      SIGNIFICANT WEATHER AND/OR OBSTRUCTIONS TO VISIBILITY.
      SKY/WX - SKY CONDITION AND SIGNIFICANT WEATHER.
      TMP - AIR TEMPERATURE.     DP    - DEWPOINT TEMPERATURE.
      RH  - RELATIVE HUMIDITY.   PRES  - PRESSURE.
      HI  - HEAT INDEX.          WCI   - WIND CHILL INDEX.

*  THESE STATIONS ARE NOT NWS OR FAA STATIONS AND ARE NOT UNDER
   NWS QUALITY CONTROL. 

LAZ038-040-048-061>063-065>067-069-260700-
SOUTHEAST LOUISIANA
  
CITY           SKY/WX    TMP DP  RH WIND       PRES   REMARKS
N.O. AUDUBON     N/A     70  69  99 MISG        N/A                   
6HR MIN TEMP:  69; 6HR MAX TEMP:  76;                                

N.O. INTL ARPT PTCLDY    69  65  86 CALM      29.75S                  
6HR MIN TEMP:  69; 6HR MAX TEMP:  75;                                

N.O. LAKEFRONT PTCLDY    73  67  81 CALM      29.76S                  
6HR MIN TEMP:  73; 6HR MAX TEMP:  79;                                

SLIDELL        PTCLDY    65  65 100 CALM      29.75S                  
6HR MIN TEMP:  65; 6HR MAX TEMP:  76;                                

BATON ROUGE    PTCLDY    67  66  97 W3        29.75S                  
6HR MIN TEMP:  67; 6HR MAX TEMP:  75;                                

BOOTHVILLE     MOCLDY    76  73  91 S8        29.76S                  
6HR MIN TEMP:  74; 6HR MAX TEMP:  77; 6HR PCP: TRACE;                

BELLE CHASSE   CLEAR     66  64  93 CALM      29.74F FOG              
6HR MIN TEMP:  65; 6HR MAX TEMP:  74;                                

BOGALUSA*      FOG       63  60  91 CALM      29.77S VSB 1/2          
6HR MIN TEMP:  62; 6HR MAX TEMP:  74;                                

GALLIANO*      CLEAR     75  71  88 S5        29.76S                  
6HR MIN TEMP:  70; 6HR MAX TEMP:  76;                                

NEW ROADS*       N/A     67  66  98 CALM      29.75S FOG              
6HR MIN TEMP:  66; 6HR MAX TEMP:  76;                                

GONZALES*        N/A    N/A N/A N/A CALM      29.74S                  
HAMMOND*       PTCLDY    66  63  88 CALM      29.77S                  
HOUMA*         CLEAR     71  70  96 S3        29.75F                  
6HR MIN TEMP:  67; 6HR MAX TEMP:  72;                                

PORT FOURCHON* CLEAR     77  73  88 S8        29.78F                  

$$

MSZ070-080>082-260700-
SOUTHERN MISSISSIPPI
  
CITY           SKY/WX    TMP DP  RH WIND       PRES   REMARKS
MCCOMB         CLEAR     64  64 100 CALM      29.75F FOG              
6HR MIN TEMP:  63; 6HR MAX TEMP:  72;                                

GULFPORT       CLEAR     65  63  93 CALM      29.75S                  
6HR MIN TEMP:  65; 6HR MAX TEMP:  73;                                

BILOXI         CLEAR     70  67  91 VRB2      29.75S                  
6HR MIN TEMP:  67; 6HR MAX TEMP:  73;                                

PASCAGOULA     CLEAR     63  62  97 CALM      29.75S FOG              
6HR MIN TEMP:  63; 6HR MAX TEMP:  71;                                


$$

COASTAL OBSERVATIONS
LAKE AND NEARSHORE STATIONS
  
STATION/POSITION TIME  TEMP    WIND        PRES    WAVE
                       AIR SEA DIR/SP/G            HT/PER
                 (UTC) (F)     (DEG/KT/KT) (MB)    (FT/S)
PASCAGOULA       0500   74     250/  8/  9 1007.0
WAVELAND YACHT   0500   70 75  260/  3/  4 1007.6
GRAND ISLE       0500   76 78  190/  5/  9 1007.6
SOUTHWEST PASS   0500   77 67  190/ 14/ 16 1008.0
NEW CANAL        0506   71     230/  3/  4 1007.9
SHELL BEACH      0500   73 76  200/  4/  4 1007.1

OFFSHORE STATIONS
  
STATION/POSITION TIME  TEMP    WIND        PRES    WAVE
                       AIR SEA DIR/SP/G            HT/PER
                 (UTC) (F)     (DEG/KT/KT) (MB)    (FT/S)
64 S DAUPHIN ISL 0550   77 77  210/ 16/ 19 1007.3    5/ 7

$$


Return to Home page


Western Regional Climate Center, wrcc@dri.edu